Regional Weather Roundup
Issued by NWS

Home | Current Version | Previous Version | Graphics & Text | Print | Product List | Glossary On
Versions: 1 2 3 4 5 6 7 8 9 10 11 12 13 14 15 16 17 18 19 20 21 22 23 24 25 26 27 28 29 30 31 32 33 34 35 36 37 38 39 40 41 42 43 44 45 46 47 48 49 50
000
ASUS43 KOAX 261102
RWRNE

WEATHER ROUNDUP FOR NEBRASKA
NATIONAL WEATHER SERVICE OMAHA NE
600 AM CDT SUN APR 26 2015

NOTES: SATELLITE DATA IS BEING USED TO AUGMENT CLOUD COVER ABOVE
       12000 FEET.
       "FAIR" INDICATES FEW OR NO CLOUDS BELOW 12,000 FEET WITH NO
       SIGNIFICANT WEATHER AND/OR OBSTRUCTIONS TO VISIBILITY.

  * THESE STATIONS DO NOT REPORT WEATHER SUCH AS RAIN...SNOW OR FOG.

NEZ001>004-019>022-054>056-261200-
NEBRASKA PANHANDLE

CITY           SKY/WX    TMP DP  RH WIND       PRES   REMARKS
SCOTTSBLUFF    LGT RAIN  48  48 100 E9        29.81R
ALLIANCE       CLOUDY    46  45  96 SE16      29.85R
CHADRON        CLOUDY    47  46  97 NE10      29.86R FOG
KIMBALL        RAIN      45  44  98 SE14      29.81R
SIDNEY         LGT RAIN  45  44  97 E7        29.85S
$$

NEZ057>060-069>072-079>082-261200-
SOUTHWEST NEBRASKA

CITY           SKY/WX    TMP DP  RH WIND       PRES   REMARKS
IMPERIAL       CLOUDY    45  43  93 SE15      29.86S FOG
MCCOOK         CLOUDY    46  44  93 NE12      29.88R FOG
$$

NEZ005>010-023>029-035>040-094-261200-
NORTH CENTRAL NEBRASKA

CITY           SKY/WX    TMP DP  RH WIND       PRES   REMARKS
VALENTINE      MOCLDY    45  40  82 SE10      29.93R
AINSWORTH      PTCLDY    41  40  95 SE5       29.94R FOG
BROKEN BOW     CLOUDY    46  41  82 SE10G23   29.92R
ORD            CLOUDY    43  39  86 E8        29.93R
$$

NEZ041-046>049-061>064-073>077-083>087-261200-
SOUTH CENTRAL NEBRASKA

CITY           SKY/WX    TMP DP  RH WIND       PRES   REMARKS
GRAND ISLAND   CLOUDY    46  42  86 E13       29.93R
AURORA         CLOUDY    46  44  93 E15       29.93R
HASTINGS       CLOUDY    46  41  82 E13       29.90S
KEARNEY *      CLOUDY    46  41  81 E13       29.92R
YORK           CLOUDY    46  41  81 E12       29.94R
$$

NEZ011>018-030>034-042>045-261200-
NORTHEAST NEBRASKA

CITY           SKY/WX    TMP DP  RH WIND       PRES   REMARKS
NORFOLK        PTCLDY    44  39  82 E3        29.97R
BLAIR          CLEAR     41  37  85 NE7       29.96R
COLUMBUS *     PTCLDY    43  36  75 NE8       29.98R
TEKAMAH        CLEAR     37  36  96 N6        29.98R FOG     WCI  32
$$

NEZ050>053-065>068-078-088>093-261200-
SOUTHEAST NEBRASKA

CITY           SKY/WX    TMP DP  RH WIND       PRES   REMARKS
LINCOLN        CLOUDY    45  40  82 NE10      29.96R
OMAHA EPPLEY   CLEAR     41  39  93 N3        29.97R
FALLS CITY     CLOUDY    46  41  82 NE8       29.92R
NEBRASKA CITY  MOCLDY    43  39  84 NE7       29.94R
PLATTSMOUTH    CLEAR     40  37  87 NE6       29.96R
$$

NEZ044-045-051>053-067-261200-
OMAHA AREA

CITY           SKY/WX    TMP DP  RH WIND       PRES   REMARKS
OMAHA EPPLEY   CLEAR     41  39  93 N3        29.97R
BLAIR          CLEAR     41  37  85 NE7       29.96R
OFFUTT AFB     FAIR      41  38  89 NE5       29.96R
PLATTSMOUTH    CLEAR     40  37  87 NE6       29.96R
WAHOO          FAIR      43  38  84 NE6       29.96S
$$



USA.gov is the U.S. government's official web portal to all federal, state and local government web resources and services.